EN

Hourly Weather Kyzymy

Today, 30 July, Friday

Time Temperature Precipitation Wind Pressure Humidity
00:00 +21°C° 0.2 mm 3 mps 737 mmHg 87%
01:00 +20°C° 0.2 mm 3 mps 737 mmHg 90%
02:00 +20°C° 0 mm 3 mps 737 mmHg 93%
03:00 +20°C° 0 mm 3 mps 737 mmHg 94%
04:00 +20°C° 0 mm 3 mps 737 mmHg 94%
05:00 +19°C° 0 mm 3 mps 737 mmHg 94%
06:00 +21°C° 0 mm 3 mps 738 mmHg 87%
07:00 +22°C° 0 mm 4 mps 738 mmHg 79%
08:00 +23°C° 0 mm 4 mps 738 mmHg 72%
09:00 +26°C° 0 mm 4 mps 738 mmHg 65%
10:00 +27°C° 0 mm 4 mps 738 mmHg 57%
11:00 +28°C° 0 mm 4 mps 738 mmHg 50%
12:00 +29°C° 0 mm 4 mps 738 mmHg 47%
13:00 +30°C° 0 mm 4 mps 738 mmHg 44%
14:00 +30°C° 0 mm 4 mps 738 mmHg 41%
15:00 +30°C° 0 mm 4 mps 738 mmHg 42%
16:00 +29°C° 0 mm 3 mps 738 mmHg 43%
17:00 +29°C° 0 mm 3 mps 738 mmHg 43%
18:00 +27°C° 0 mm 2 mps 738 mmHg 48%
19:00 +26°C° 0 mm 2 mps 738 mmHg 53%
20:00 +24°C° 0 mm 1 mps 738 mmHg 58%
21:00 +23°C° 0 mm 1 mps 738 mmHg 58%
22:00 +23°C° 0 mm 1 mps 738 mmHg 59%
23:00 +22°C° 0 mm 1 mps 738 mmHg 59%

Tomorrow, 31 July, Saturday

Time Temperature Precipitation Wind Pressure Humidity
00:00 +22°C° 0 mm 1 mps 738 mmHg 60%
01:00 +22°C° 0 mm 1 mps 738 mmHg 62%
02:00 +20°C° 0 mm 2 mps 738 mmHg 63%
03:00 +20°C° 0 mm 2 mps 738 mmHg 66%
04:00 +20°C° 0 mm 2 mps 738 mmHg 69%
05:00 +19°C° 0 mm 2 mps 738 mmHg 71%
06:00 +21°C° 0 mm 2 mps 738 mmHg 67%
07:00 +24°C° 0 mm 1 mps 738 mmHg 63%
08:00 +26°C° 0 mm 1 mps 739 mmHg 59%
09:00 +27°C° 0 mm 1 mps 739 mmHg 54%
10:00 +29°C° 0 mm 2 mps 739 mmHg 49%
11:00 +30°C° 0 mm 2 mps 739 mmHg 44%
12:00 +31°C° 0 mm 1 mps 738 mmHg 42%
13:00 +31°C° 0 mm 1 mps 738 mmHg 40%
14:00 +32°C° 0 mm 1 mps 738 mmHg 38%
15:00 +32°C° 0 mm 1 mps 738 mmHg 38%
16:00 +32°C° 0 mm 1 mps 738 mmHg 38%
17:00 +32°C° 0 mm 1 mps 738 mmHg 38%
18:00 +30°C° 0 mm 1 mps 738 mmHg 43%
19:00 +28°C° 0 mm 2 mps 738 mmHg 48%
20:00 +26°C° 0 mm 2 mps 738 mmHg 52%
21:00 +26°C° 0 mm 3 mps 738 mmHg 54%
22:00 +25°C° 0 mm 3 mps 738 mmHg 55%
23:00 +25°C° 0 mm 3 mps 738 mmHg 56%

Day after tomorrow, 1 August, Sunday

Time Temperature Precipitation Wind Pressure Humidity
00:00 +24°C° 0 mm 3 mps 738 mmHg 58%
01:00 +22°C° 0 mm 3 mps 738 mmHg 61%
02:00 +22°C° 0 mm 3 mps 738 mmHg 64%
03:00 +21°C° 0 mm 3 mps 738 mmHg 69%
04:00 +21°C° 0 mm 3 mps 738 mmHg 73%
05:00 +21°C° 0 mm 3 mps 738 mmHg 78%
06:00 +24°C° 0 mm 3 mps 738 mmHg 72%
07:00 +25°C° 0 mm 4 mps 738 mmHg 66%
08:00 +27°C° 0 mm 4 mps 738 mmHg 61%
09:00 +28°C° 0 mm 5 mps 738 mmHg 56%
10:00 +30°C° 0 mm 5 mps 738 mmHg 52%
11:00 +32°C° 0 mm 6 mps 738 mmHg 48%
12:00 +33°C° 0 mm 6 mps 738 mmHg 46%
13:00 +33°C° 0 mm 5 mps 738 mmHg 45%
14:00 +34°C° 0 mm 5 mps 738 mmHg 43%
15:00 +34°C° 0 mm 4 mps 738 mmHg 44%
16:00 +34°C° 0 mm 4 mps 737 mmHg 45%
17:00 +34°C° 0 mm 3 mps 737 mmHg 46%
18:00 +31°C° 0 mm 3 mps 737 mmHg 52%
19:00 +29°C° 0 mm 2 mps 737 mmHg 57%
20:00 +27°C° 0 mm 1 mps 737 mmHg 63%
21:00 +26°C° 0 mm 1 mps 737 mmHg 65%
22:00 +25°C° 0 mm 1 mps 737 mmHg 68%
23:00 +25°C° 0 mm 1 mps 737 mmHg 70%

2 August, Monday

Time Temperature Precipitation Wind Pressure Humidity
00:00 +24°C° 0.1 mm 2 mps 737 mmHg 72%
01:00 +23°C° 0.1 mm 2 mps 737 mmHg 73%
02:00 +23°C° 0.1 mm 2 mps 737 mmHg 75%
03:00 +21°C° 0.2 mm 3 mps 737 mmHg 77%
04:00 +21°C° 0.2 mm 3 mps 736 mmHg 78%
05:00 +20°C° 0.2 mm 4 mps 736 mmHg 80%
06:00 +21°C° 0.5 mm 4 mps 736 mmHg 77%
07:00 +23°C° 0.5 mm 5 mps 736 mmHg 75%
08:00 +24°C° 0.5 mm 6 mps 736 mmHg 72%
09:00 +26°C° 0 mm 6 mps 736 mmHg 68%
10:00 +27°C° 0 mm 6 mps 736 mmHg 64%
11:00 +28°C° 0 mm 7 mps 736 mmHg 59%
12:00 +29°C° 0 mm 6 mps 736 mmHg 56%
13:00 +30°C° 0 mm 6 mps 736 mmHg 52%
14:00 +32°C° 0 mm 5 mps 736 mmHg 48%
15:00 +32°C° 0.4 mm 6 mps 735 mmHg 51%
16:00 +30°C° 0.4 mm 7 mps 735 mmHg 54%
17:00 +31°C° 0.4 mm 8 mps 735 mmHg 57%
18:00 +27°C° 1.1 mm 6 mps 735 mmHg 67%
19:00 +23°C° 1.1 mm 5 mps 736 mmHg 77%
20:00 +21°C° 1.1 mm 3 mps 736 mmHg 88%
21:00 +20°C° 0.1 mm 3 mps 736 mmHg 88%
22:00 +19°C° 0.1 mm 3 mps 737 mmHg 88%
23:00 +18°C° 0.1 mm 3 mps 737 mmHg 88%

3 August, Tuesday

Time Temperature Precipitation Wind Pressure Humidity
00:00 +18°C° 0 mm 4 mps 737 mmHg 90%
01:00 +17°C° 0 mm 4 mps 738 mmHg 91%
02:00 +16°C° 0 mm 5 mps 738 mmHg 93%
03:00 +15°C° 0 mm 4 mps 738 mmHg 93%
04:00 +15°C° 0 mm 4 mps 739 mmHg 93%
05:00 +14°C° 0 mm 4 mps 739 mmHg 93%
06:00 +15°C° 0 mm 4 mps 739 mmHg 85%
07:00 +18°C° 0 mm 4 mps 740 mmHg 78%
08:00 +19°C° 0 mm 5 mps 740 mmHg 70%
09:00 +21°C° 0 mm 4 mps 740 mmHg 64%
10:00 +22°C° 0 mm 4 mps 740 mmHg 57%
11:00 +25°C° 0 mm 4 mps 741 mmHg 51%
12:00 +26°C° 0 mm 4 mps 741 mmHg 49%
13:00 +27°C° 0 mm 4 mps 740 mmHg 46%
14:00 +27°C° 0 mm 3 mps 740 mmHg 43%
15:00 +27°C° 0 mm 4 mps 741 mmHg 46%
16:00 +26°C° 0 mm 4 mps 741 mmHg 49%
17:00 +26°C° 0 mm 4 mps 741 mmHg 51%
18:00 +25°C° 0 mm 3 mps 741 mmHg 54%
19:00 +24°C° 0 mm 2 mps 741 mmHg 56%
20:00 +23°C° 0 mm 2 mps 741 mmHg 59%
21:00 +21°C° 0 mm 2 mps 741 mmHg 62%
22:00 +20°C° 0 mm 2 mps 742 mmHg 65%
23:00 +19°C° 0 mm 2 mps 742 mmHg 69%

4 August, Wednesday

Time Temperature Precipitation Wind Pressure Humidity
00:00 +18°C° 0 mm 2 mps 742 mmHg 71%
01:00 +18°C° 0 mm 2 mps 742 mmHg 73%
02:00 +17°C° 0 mm 2 mps 742 mmHg 75%
03:00 +17°C° 0 mm 2 mps 742 mmHg 77%
04:00 +18°C° 0 mm 1 mps 742 mmHg 79%
05:00 +16°C° 0 mm 1 mps 742 mmHg 80%
06:00 +19°C° 0 mm 1 mps 742 mmHg 74%
07:00 +21°C° 0 mm 1 mps 742 mmHg 68%
08:00 +23°C° 0 mm 2 mps 743 mmHg 62%
09:00 +24°C° 0 mm 2 mps 742 mmHg 57%
10:00 +26°C° 0 mm 2 mps 742 mmHg 51%
11:00 +27°C° 0 mm 3 mps 742 mmHg 46%
12:00 +28°C° 0 mm 3 mps 742 mmHg 45%
13:00 +29°C° 0 mm 3 mps 742 mmHg 43%
14:00 +29°C° 0 mm 4 mps 741 mmHg 42%
15:00 +28°C° 0 mm 3 mps 741 mmHg 46%
16:00 +28°C° 0 mm 2 mps 741 mmHg 51%
17:00 +27°C° 0 mm 2 mps 740 mmHg 55%
18:00 +25°C° 0.1 mm 2 mps 740 mmHg 59%
19:00 +24°C° 0.1 mm 3 mps 740 mmHg 62%
20:00 +22°C° 0.1 mm 3 mps 740 mmHg 65%
21:00 +21°C° 0.4 mm 4 mps 740 mmHg 72%
22:00 +21°C° 0.4 mm 4 mps 740 mmHg 79%
23:00 +20°C° 0.4 mm 5 mps 740 mmHg 86%
Show more